Change the Weather History Date:

Saturday, February 16, 2013

  Actual Average Record
Temperature  
Mean Temperature 36 °F -  
Max Temperature 55 °F 43 °F 66 °F (2014)
Min Temperature 16 °F 22 °F -8 °F (2006)
Degree Days  
Heating Degree Days 30    
Moisture  
Dew Point 20 °F    
Average Humidity 59    
Maximum Humidity 89    
Minimum Humidity 8    
Precipitation  
Precipitation 0.00 in - - ()
Sea Level Pressure  
Sea Level Pressure 30.31 in    
Wind  
Wind Speed 7 mph (SSW)    
Max Wind Speed 15 mph    
Max Gust Speed -    
Visibility 10 miles    
Events Fog    
Averages and records for this station are not official NWS values.
T = Trace of Precipitation, MM = Missing Value Source: NWS Daily Summary

Daily Weather History Graph

Daily Weather History Graph

Search for Another Location

Airport or City:

Trip Planner

Search our weather history database for the weather conditions in past years. The results will help you decide how hot, cold, wet, or windy it might be!

Date:

Astronomy

Feb. 16, 2013 Rise Set
Actual Time 7:21 AM MST 6:11 PM MST
Civil Twilight 6:53 AM MST 6:38 PM MST
Nautical Twilight 6:23 AM MST 7:09 PM MST
Astronomical Twilight 5:52 AM MST 7:40 PM MST
Moon 10:42 AM MST (2/16) 12:09 AM MST (2/16)
Length of Visible Light 11h 44m
Length of Day
10h 50m
Waxing Crescent, 40% of the Moon is Illuminated
Feb 16
Waxing Crescent
Feb 17
First Quarter
Feb 25
Full
Mar 4
Last Quarter
Mar 11
New

Hourly Weather History & Observations

Time (MST) Temp. Windchill Dew Point Humidity Pressure Visibility Wind Dir Wind Speed Gust Speed Precip Events Conditions
12:52 AM 23.0 °F - 19.0 °F 85% 30.51 in 10.0 mi Calm Calm - N/A   Clear
1:08 AM 24.8 °F 17.9 °F 19.4 °F 80% 30.47 in 0.2 mi WSW 5.8 mph - N/A Fog Light Freezing Fog
1:16 AM 24.8 °F 17.9 °F 19.4 °F 80% 30.47 in 3.0 mi West 5.8 mph - N/A   Clear
1:52 AM 23.0 °F 15.8 °F 19.9 °F 88% 30.51 in 10.0 mi South 5.8 mph - N/A   Clear
2:52 AM 21.9 °F 15.7 °F 18.0 °F 85% 30.50 in 10.0 mi WSW 4.6 mph - N/A   Clear
3:52 AM 21.0 °F 12.4 °F 17.1 °F 85% 30.47 in 10.0 mi WSW 6.9 mph - N/A   Clear
4:52 AM 19.9 °F 14.9 °F 17.1 °F 89% 30.48 in 10.0 mi South 3.5 mph - N/A   Clear
5:52 AM 21.0 °F 11.4 °F 17.1 °F 85% 30.47 in 10.0 mi WSW 8.1 mph - N/A   Clear
6:52 AM 19.0 °F 11.1 °F 16.0 °F 88% 30.50 in 10.0 mi South 5.8 mph - N/A   Clear
7:52 AM 19.0 °F 13.9 °F 15.1 °F 85% 30.49 in 10.0 mi SW 3.5 mph - N/A   Clear
8:52 AM 27.0 °F 18.0 °F 23.0 °F 85% 30.46 in 10.0 mi South 9.2 mph - N/A   Clear
9:52 AM 33.1 °F 24.4 °F 28.0 °F 82% 30.43 in 10.0 mi South 11.5 mph - N/A   Clear
10:52 AM 39.9 °F 32.9 °F 25.0 °F 55% 30.38 in 10.0 mi South 11.5 mph - N/A   Clear
11:52 AM 44.1 °F 37.7 °F 24.1 °F 45% 30.33 in 10.0 mi South 12.7 mph - N/A   Clear
12:52 PM 51.1 °F - 23.0 °F 33% 30.28 in 10.0 mi SSW 13.8 mph - N/A   Clear
1:52 PM 53.1 °F - 24.1 °F 32% 30.23 in 10.0 mi South 13.8 mph - N/A   Clear
2:52 PM 55.9 °F - 21.0 °F 26% 30.19 in 10.0 mi SSW 15.0 mph - N/A   Clear
3:52 PM 57.0 °F - 14.0 °F 18% 30.16 in 10.0 mi South 13.8 mph - N/A   Clear
4:52 PM 57.0 °F - 12.0 °F 17% 30.13 in 10.0 mi SSW 9.2 mph - N/A   Clear
5:52 PM 48.0 °F - 19.9 °F 33% 30.14 in 10.0 mi SW 6.9 mph - N/A   Clear
6:52 PM 37.9 °F 34.4 °F 21.9 °F 53% 30.17 in 10.0 mi North 4.6 mph - N/A   Clear
7:52 PM 35.1 °F - 28.0 °F 76% 30.18 in 10.0 mi Calm Calm - N/A   Clear
8:52 PM 35.1 °F 26.9 °F 24.1 °F 64% 30.14 in 10.0 mi SSW 11.5 mph - N/A   Clear
9:52 PM 39.0 °F 31.0 °F 21.0 °F 49% 30.09 in 10.0 mi SW 13.8 mph - N/A   Clear
10:52 PM 37.0 °F 29.3 °F 17.1 °F 44% 30.04 in 10.0 mi WSW 11.5 mph - N/A   Clear
11:52 PM 41.0 °F 34.3 °F 12.9 °F 32% 30.00 in 10.0 mi WSW 11.5 mph - N/A   Clear